[[{"header":{"parameterUnit":"m.s-1","parameterCategory":1,"la1":30.2991,"la2":30.254,"lo1":-89.0895,"lo2":-89.0444,"dy":0.0017,"dx":0.0017,"nx":28,"ny":28,"refTime":"2024-07-19T03:00:00:Z","depth":0,"parameterNumber":2,"parameterNumberName":"U-component_of_WINDS"},"data":[0,0,0,0,0,0,0,0,0,0,0,0,0,0,0,0,0,0,0,0,0,0,0,0,0,0,0,0,0,0,0,0,0,0,0,0,0,0,0,0,0,0,0,0,0,0,0,0,0,0,0,0,0,0,0,0,0,0,-1.5567,-1.5567,0,-1.5514,-1.5513,-1.5513,-1.5508,-1.5508,-1.5509,-1.5509,-1.5455,-1.5453,-1.5451,0,0,0,0,0,0,0,0,0,0,0,0,0,-1.5663,-1.5661,-1.5567,-1.5567,-1.5566,-1.5514,-1.5513,-1.5513,-1.5508,-1.5508,-1.5509,-1.551,-1.5456,-1.5454,-1.5451,0,0,0,0,0,0,0,0,0,0,0,0,0,-1.5616,-1.566,-1.5567,-1.5557,-1.5556,-1.5514,-1.5513,-1.5512,-1.5507,-1.5508,-1.5509,-1.551,-1.5457,-1.5454,-1.5451,-1.5416,0,0,-1.5442,-1.5441,0,0,0,0,0,0,0,0,-1.5619,-1.5613,-1.5559,-1.5558,-1.5556,-1.5518,-1.5527,-1.548,-1.5507,-1.5526,-1.5509,-1.551,-1.5476,-1.5471,-1.5459,-1.5414,-1.5411,-1.5442,-1.544,-1.5439,-1.5438,0,0,0,0,0,0,0,-1.5622,-1.5615,-1.5546,-1.5559,-1.5557,-1.5554,-1.5549,-1.5518,-1.5497,-1.5524,-1.5524,-1.5517,-1.5475,-1.5462,-1.5458,-1.5411,-1.5442,-1.5439,-1.5437,-1.5436,-1.5329,-1.5328,0,0,0,0,0,0,-1.5628,-1.5618,-1.5548,-1.5545,-1.559,-1.5552,-1.5546,-1.553,-1.5497,-1.5493,-1.5517,-1.5517,-1.5467,-1.5462,-1.5456,-1.541,-1.5439,-1.5436,-1.5434,-1.533,-1.5329,-1.5328,0,0,0,0,0,0,-1.563,-1.5621,-1.555,-1.5581,-1.5572,-1.555,-1.5531,-1.5528,-1.5515,-1.5491,-1.5487,-1.5508,-1.5467,-1.546,-1.5425,-1.5408,-1.5435,-1.5432,-1.5332,-1.533,-1.5328,-1.532,0,0,0,0,0,0,-1.5632,-1.5622,-1.5609,-1.5581,-1.557,-1.5521,-1.5531,-1.5527,-1.551,-1.5511,-1.5482,-1.5478,-1.5467,-1.543,-1.5422,-1.5405,-1.543,-1.5333,-1.5331,-1.5329,-1.5321,-1.5318,-1.5315,0,0,0,0,0,-1.5636,-1.561,-1.5609,-1.56,-1.5554,-1.552,-1.5514,-1.5502,-1.5509,-1.5495,-1.5479,-1.5479,-1.5412,-1.5426,-1.5418,-1.5399,-1.5334,-1.5331,-1.5329,-1.5323,-1.5319,-1.5315,0,0,0,0,0,0,-1.5639,-1.5607,-1.5605,-1.5569,-1.5547,-1.5519,-1.5502,-1.5498,-1.5474,-1.5475,-1.5462,-1.5455,-1.542,-1.5406,-1.5423,-1.5362,-1.5373,-1.5369,-1.5372,-1.5367,-1.5364,-1.5368,-1.5427,0,0,0,0,0,-1.5635,-1.561,-1.5584,-1.5555,-1.5544,-1.5524,-1.5509,-1.5501,-1.5478,-1.5469,-1.5451,-1.5428,-1.5401,-1.5384,-1.5358,-1.532,-1.5312,-1.5303,-1.53,-1.5297,-1.5293,-1.5268,-1.5262,-1.532,-1.532,-1.532,0,0,-1.5628,-1.5607,-1.5593,-1.5555,-1.5537,-1.551,-1.5517,-1.5489,-1.5469,-1.5465,-1.5429,-1.5415,-1.5389,-1.535,-1.5333,-1.5338,-1.5275,-1.5294,-1.5292,-1.5289,-1.5265,-1.5259,-1.5254,-1.5318,-1.5318,-1.5319,0,0,-1.56,-1.5583,-1.5555,-1.5536,-1.5508,-1.5495,-1.5488,-1.546,-1.5449,-1.5414,-1.5409,-1.5384,-1.534,-1.532,-1.5304,-1.5264,-1.5262,-1.5257,-1.524,-1.5215,-1.521,-1.5206,-1.5189,-1.5183,-1.5253,-1.5253,-1.5253,0,-1.5594,-1.5554,-1.5542,-1.5513,-1.5495,-1.5489,-1.5459,-1.5442,-1.5407,-1.5394,-1.5401,-1.5342,-1.5324,-1.5279,-1.5269,-1.5258,-1.5247,-1.5259,-1.5212,-1.5208,-1.5204,-1.5187,-1.5181,-1.5252,-1.5252,-1.5252,-1.5253,0,-1.5547,-1.5519,-1.55,-1.5464,-1.5445,-1.5416,-1.5397,-1.5379,-1.5372,-1.5358,-1.5319,-1.5297,-1.5265,-1.5254,-1.5249,-1.5208,-1.5211,-1.5215,-1.5226,-1.5198,-1.5182,-1.5175,-1.5251,-1.5252,-1.5252,-1.5252,0,0,-1.5521,-1.5476,-1.547,-1.5451,-1.5418,-1.5396,-1.5366,-1.5333,-1.5316,-1.5292,-1.5264,-1.5225,-1.5227,-1.5209,-1.52,-1.5179,-1.5145,-1.5185,-1.5184,-1.5176,-1.5094,-1.5089,-1.5082,-1.5143,-1.5142,-1.5141,-1.5095,0,-1.5488,-1.5433,-1.5419,-1.5372,-1.5344,-1.5336,-1.5309,-1.5285,-1.527,-1.5243,-1.5227,-1.5198,-1.5205,-1.5193,-1.5172,-1.5153,-1.5128,-1.5157,-1.5116,-1.5114,-1.512,-1.5074,-1.507,-1.5027,-1.5089,-1.5088,-1.5087,0,-1.5442,-1.5414,-1.5364,-1.533,-1.5318,-1.5294,-1.5261,-1.5236,-1.5208,-1.5198,-1.5176,-1.5168,-1.5134,-1.5148,-1.51,-1.512,-1.5102,-1.509,-1.5088,-1.5082,-1.5097,-1.5064,-1.5014,-1.5006,-1.5078,-1.5078,-1.5079,0,-1.5424,-1.5375,-1.5337,-1.5322,-1.5283,-1.5266,-1.5249,-1.5221,-1.5201,-1.5172,-1.5158,-1.5126,-1.5108,-1.5083,-1.5066,-1.5079,-1.5018,-1.5031,-1.5007,-1.5007,-1.4993,-1.4994,-1.4937,-1.4986,-1.4986,-1.4986,-1.4987,0,-1.5388,-1.5356,-1.5328,-1.5304,-1.5268,-1.5251,-1.5215,-1.5198,-1.5173,-1.5144,-1.5137,-1.511,-1.5091,-1.5062,-1.5049,-1.5008,-1.5001,-1.4991,-1.4987,-1.499,-1.4991,-1.4976,-1.4978,-1.4985,-1.4985,-1.4985,-1.4986,0,-1.5362,-1.5342,-1.5299,-1.5264,-1.5255,-1.5229,-1.5199,-1.5175,-1.5158,-1.5122,-1.5113,-1.5087,-1.5052,-1.5033,-1.4989,-1.498,-1.4934,-1.4933,-1.4943,-1.4941,-1.4916,-1.4917,-1.4845,-1.4833,-1.4894,-1.4893,-1.4893,0,-1.5339,-1.5314,-1.5275,-1.5255,-1.5237,-1.5205,-1.5184,-1.5165,-1.5143,-1.5106,-1.5086,-1.5049,-1.5019,-1.4962,-1.4939,-1.4904,-1.4901,-1.4878,-1.4896,-1.4898,-1.4897,-1.4897,-1.4893,-1.4875,-1.4874,-1.4874,-1.4874,0,-1.5299,-1.5289,-1.5258,-1.5222,-1.5196,-1.5167,-1.5139,-1.5123,-1.51,-1.5075,-1.5037,-1.5013,-1.4967,-1.4929,-1.4892,-1.4874,-1.4868,-1.4868,-1.486,-1.4861,-1.4866,-1.4859,-1.4931,-1.487,-1.487,-1.487,-1.487,-1.4871,-1.5271,-1.5247,-1.5215,-1.5179,-1.5155,-1.5128,-1.5102,-1.5081,-1.5049,-1.5009,-1.5,-1.4959,-1.4927,-1.4876,-1.4856,-1.4823,-1.4828,-1.4817,-1.4814,-1.4811,-1.4808,-1.4873,-1.4817,-1.4817,-1.4817,-1.4817,-1.4817,0,-1.5228,-1.5206,-1.5173,-1.5132,-1.5103,-1.51,-1.5067,-1.5043,-1.5007,-1.4978,-1.4947,-1.4901,-1.4864,-1.4837,-1.4799,-1.4777,-1.4773,-1.4767,-1.4767,-1.4762,-1.4808,-1.4817,-1.477,-1.477,-1.477,-1.477,-1.4771,-1.4771,-1.5202,-1.516,-1.5145,-1.5089,-1.5067,-1.5026,-1.5007,-1.498,-1.4956,-1.4905,-1.4873,-1.4856,-1.4826,-1.4784,-1.4749,-1.4742,-1.4727,-1.472,-1.4712,-1.4755,-1.476,-1.4764,-1.4773,-1.4718,-1.4718,-1.4669,-1.4669,-1.4668]},{"header":{"parameterUnit":"m.s-1","parameterCategory":1,"la1":30.2991,"la2":30.254,"lo1":-89.0895,"lo2":-89.0444,"dy":0.0017,"dx":0.0017,"nx":28,"ny":28,"refTime":"2024-07-19T03:00:00:Z","depth":0,"parameterNumber":3,"parameterNumberName":"V-component_of_WINDS"},"data":[0,0,0,0,0,0,0,0,0,0,0,0,0,0,0,0,0,0,0,0,0,0,0,0,0,0,0,0,0,0,0,0,0,0,0,0,0,0,0,0,0,0,0,0,0,0,0,0,0,0,0,0,0,0,0,0,0,0,4.5178,4.5178,0,4.516,4.5159,4.5159,4.5062,4.506,4.5057,4.5055,4.5036,4.5038,4.504,0,0,0,0,0,0,0,0,0,0,0,0,0,4.5131,4.5132,4.5178,4.5178,4.5178,4.516,4.5159,4.5159,4.5062,4.5059,4.5057,4.5054,4.5036,4.5038,4.504,0,0,0,0,0,0,0,0,0,0,0,0,0,4.5136,4.5132,4.5178,4.5127,4.5122,4.516,4.5159,4.5159,4.5063,4.5059,4.5056,4.5053,4.5035,4.5038,4.504,4.5125,0,0,4.5048,4.5049,0,0,0,0,0,0,0,0,4.5136,4.5138,4.5135,4.5131,4.5126,4.5109,4.5136,4.5148,4.5064,4.5086,4.5055,4.5051,4.5064,4.5064,4.5068,4.5124,4.5123,4.5048,4.5049,4.5051,4.5051,0,0,0,0,0,0,0,4.5135,4.5138,4.5171,4.5135,4.5129,4.5106,4.5102,4.5138,4.5094,4.5083,4.5076,4.5075,4.506,4.5066,4.5067,4.5123,4.5048,4.505,4.5052,4.5053,4.5249,4.5252,0,0,0,0,0,0,4.5142,4.5138,4.5171,4.517,4.5122,4.5109,4.5106,4.5118,4.5094,4.5087,4.5078,4.5071,4.5063,4.5064,4.5066,4.5163,4.5051,4.5053,4.5054,4.5245,4.525,4.5254,0,0,0,0,0,0,4.5141,4.5146,4.5172,4.5152,4.5154,4.5114,4.5129,4.512,4.5125,4.509,4.5082,4.5091,4.506,4.5062,4.5111,4.5161,4.5054,4.5056,4.5241,4.5246,4.5252,4.536,0,0,0,0,0,0,4.514,4.5146,4.5178,4.5154,4.5155,4.5218,4.5132,4.5122,4.5129,4.5119,4.51,4.5093,4.5058,4.5108,4.5114,4.5163,4.5058,4.5236,4.5243,4.525,4.5351,4.5368,4.5382,0,0,0,0,0,4.5139,4.5209,4.518,4.5185,4.5194,4.5221,4.5222,4.5179,4.5134,4.5165,4.5143,4.5094,4.5155,4.5114,4.5119,4.517,4.5233,4.5241,4.5249,4.5344,4.5365,4.5382,0,0,0,0,0,0,4.524,4.5205,4.5172,4.5236,4.5233,4.5205,4.5243,4.5202,4.5211,4.5201,4.5148,4.5145,4.5202,4.5191,4.5145,4.5251,4.5186,4.5195,4.5256,4.5275,4.529,4.5291,4.506,0,0,0,0,0,4.527,4.5295,4.5263,4.5323,4.5322,4.5284,4.5294,4.5261,4.5255,4.5253,4.5234,4.523,4.5248,4.5261,4.5276,4.535,4.5344,4.5387,4.5403,4.5416,4.5425,4.5463,4.5482,4.5281,4.5281,4.5281,0,0,4.5331,4.5315,4.5334,4.5342,4.5335,4.5363,4.5283,4.5314,4.5334,4.5257,4.5302,4.5289,4.5281,4.5343,4.5369,4.5335,4.5479,4.5427,4.5437,4.5439,4.5474,4.5493,4.551,4.5287,4.5286,4.5285,0,0,4.5457,4.5448,4.5496,4.5491,4.5482,4.5456,4.5468,4.5447,4.5434,4.5479,4.5422,4.5445,4.5477,4.5474,4.5477,4.5603,4.5558,4.5609,4.5691,4.5729,4.5744,4.5758,4.5803,4.582,4.5619,4.5619,4.5619,0,4.5535,4.5573,4.5527,4.5562,4.5568,4.55,4.5549,4.5547,4.5543,4.5548,4.5511,4.555,4.554,4.56,4.5631,4.5636,4.5648,4.5611,4.5746,4.5759,4.5771,4.5813,4.5831,4.5625,4.5624,4.5624,4.5623,0,4.5669,4.5697,4.5737,4.5735,4.5745,4.5788,4.5748,4.5764,4.5731,4.5709,4.5756,4.5741,4.5752,4.5764,4.5733,4.5821,4.58,4.5755,4.5688,4.5798,4.5836,4.5852,4.5634,4.5632,4.563,4.5628,0,0,4.5856,4.5829,4.5845,4.5843,4.5829,4.5849,4.5889,4.5899,4.5914,4.5914,4.5946,4.5976,4.5934,4.5938,4.5905,4.5939,4.604,4.589,4.5889,4.5918,4.6136,4.6169,4.6188,4.6011,4.6013,4.6016,4.6136,0,4.5976,4.6042,4.6002,4.6074,4.6099,4.6036,4.607,4.6066,4.6047,4.6065,4.6044,4.6066,4.601,4.6011,4.6042,4.6021,4.6083,4.6012,4.604,4.6041,4.6043,4.6209,4.6244,4.6358,4.6151,4.6154,4.6155,0,4.6124,4.6131,4.6206,4.6187,4.6196,4.6228,4.6234,4.6253,4.6247,4.6231,4.6235,4.6194,4.6232,4.6167,4.6219,4.6172,4.6181,4.6173,4.6176,4.6177,4.6104,4.6213,4.6393,4.6411,4.6179,4.6177,4.6175,0,4.6253,4.6281,4.6329,4.633,4.6309,4.6333,4.6326,4.6316,4.6325,4.6331,4.6337,4.6348,4.6354,4.6363,4.6327,4.6283,4.6384,4.6315,4.6371,4.6373,4.6394,4.6394,4.6579,4.6402,4.6402,4.6402,4.6401,0,4.6391,4.6439,4.6387,4.6417,4.6469,4.6423,4.6476,4.6461,4.6454,4.6479,4.6426,4.6452,4.6402,4.6423,4.6395,4.6443,4.6446,4.6434,4.6426,4.6438,4.644,4.6443,4.6434,4.6406,4.6405,4.6404,4.6403,0,4.6543,4.651,4.6558,4.6535,4.653,4.657,4.655,4.6577,4.6555,4.6588,4.6594,4.6559,4.6581,4.6546,4.6564,4.6545,4.661,4.659,4.6613,4.6606,4.6664,4.6659,4.6857,4.6881,4.669,4.6692,4.6694,0,4.6632,4.6668,4.6649,4.6662,4.6658,4.6681,4.669,4.6646,4.6658,4.6654,4.6682,4.6699,4.671,4.6749,4.6725,4.6739,4.6718,4.6787,4.672,4.6732,4.6719,4.6717,4.6721,4.6801,4.6803,4.6805,4.6806,0,4.6795,4.6777,4.6792,4.6803,4.6815,4.6821,4.6823,4.6837,4.6792,4.6808,4.683,4.6839,4.6857,4.6875,4.6883,4.6876,4.6834,4.6828,4.6841,4.6854,4.6866,4.686,4.6649,4.6823,4.6821,4.682,4.6819,4.6819,4.6917,4.6946,4.6937,4.6957,4.6954,4.6957,4.6981,4.6963,4.698,4.6991,4.6965,4.6993,4.6987,4.6993,4.699,4.7012,4.6982,4.7002,4.7007,4.7012,4.7021,4.6863,4.7014,4.7013,4.7013,4.7012,4.7012,0,4.7077,4.7068,4.7086,4.7091,4.7107,4.7066,4.7066,4.7082,4.7108,4.7105,4.7118,4.7143,4.7161,4.714,4.7154,4.7175,4.7156,4.718,4.7178,4.7177,4.7047,4.7034,4.7195,4.7195,4.7195,4.7195,4.7195,4.7195,4.7161,4.7208,4.7189,4.7234,4.7225,4.7253,4.7257,4.726,4.7257,4.7288,4.7303,4.7289,4.7279,4.7292,4.7307,4.73,4.7307,4.7338,4.7325,4.7204,4.7186,4.7169,4.7156,4.734,4.734,4.7452,4.7453,4.7454]}]]